Content
SEND FEEDBACK

Daily
Averages
Monthly
Summary
United States of America

SOUTH LAKE TAHOE, CALIFORNIA


Home > North America > United States > California
Elevation: 1908 meters     Latitude: 38 53N     Longitude: 119 59W

WEATHER
 
SELECT A DAY
Number of Records: 176,518;   Date Range: 1/1/95 - 9/30/14
 
SHARE

PRINT THIS DATA

[ ← Previous Day ]
WEATHER ALMANAC - 13 FEBRUARY, 2013
[ Next Day → ]
[ °F ]   °C
Weather ElementAverageHighLow
Temperature0.2 °C8.3 °C (2:53 pm)-8.3 °C (5:53 am)
Dewpoint-7.7 °C-4.4 °C (1:53 pm)-11.1 °C (5:53 am)
Humidity58.8 %81 % (3:53 am)36 % (2:53 pm)
Barometer1027.4 hPa1030.8 hPa (7:53 am)1025.4 hPa (2:53 pm)
Wind Speed5.8 km/h18.5 km/h (3:53 pm)
Wind Gust27.8 km/h (3:53 pm)
Weather ElementAverage
Visibility16.1 km
Wind DirectionNE (47.8 °)

Weather ElementTotal
Precipitation---
Heating Degree Days18.3 (Base 18.3)
Averaged from 23 records on 13 February, 2013
WEATHER CONDITIONS BREAKOUT
WIND DIRECTION BREAKOUT
WEATHER BY HOUR - 13 FEBRUARY, 2013
[ °F ]   °C
Local TimeTemperatureDewpointHumidityBarometerVisibilityWind DirectionWind SpeedGust SpeedPrecipitationEventsConditions
1:53 AM-6.1 °C-9.4 °C78 %1028.1 hPa16.1 kmCalmClear
2:53 AM-6.7 °C-10 °C78 %1027.8 hPa16.1 kmCalmClear
3:53 AM-7.2 °C-10 °C81 %1027.8 hPa16.1 kmCalmClear
4:53 AM-7.2 °C-10.6 °C77 %1028.1 hPa16.1 kmCalmClear
5:53 AM-8.3 °C-11.1 °C81 %1029.1 hPa16.1 kmSSW (200°)5.6 km/hClear
6:53 AM-8.3 °C-11.1 °C81 %1030.1 hPa16.1 kmCalmClear
7:53 AM-8.3 °C-11.1 °C81 %1030.8 hPa16.1 kmSSW (200°)5.6 km/hClear
8:53 AM-2.8 °C-8.9 °C63 %1029.5 hPa16.1 kmSouth (180°)5.6 km/hClear
9:53 AM1.7 °C-7.8 °C50 %1028.8 hPa16.1 kmNE (40°)5.6 km/hClear
10:53 AM5 °C-7.2 °C41 %1027.8 hPa16.1 kmEast (90°)5.6 km/hClear
11:53 AM6.1 °C-6.1 °C42 %1027.1 hPa16.1 kmNNE (30°)13 km/hClear
12:53 PM7.8 °C-5 °C40 %1026.4 hPa16.1 kmVariable11.1 km/hClear
1:53 PM7.8 °C-4.4 °C42 %1025.7 hPa16.1 kmVariable9.3 km/hClear
2:53 PM8.3 °C-6.1 °C36 %1025.4 hPa16.1 kmNNE (20°)14.8 km/hClear
3:53 PM7.8 °C-6.1 °C37 %1025.7 hPa16.1 kmNNE (20°)18.5 km/h27.8 km/hClear
4:53 PM7.2 °C-6.7 °C37 %1026.1 hPa16.1 kmESE (120°)9.3 km/hClear
5:53 PM6.7 °C-7.2 °C37 %1026.1 hPa16.1 kmVariable11.1 km/hClear
6:53 PM1.7 °C-5.6 °C59 %1027.8 hPa16.1 kmCalmClear
7:53 PM3.3 °C-6.1 °C51 %1027.4 hPa16.1 kmCalmClear
8:53 PM2.8 °C-6.7 °C50 %1026.4 hPa16.1 kmVariable9.3 km/hClear
9:53 PM-1.1 °C-6.7 °C66 %1026.4 hPa16.1 kmSSW (200°)7.4 km/hClear
10:53 PM-2.2 °C-6.7 °C72 %1025.7 hPa16.1 kmCalmClear
11:53 PM-2.8 °C-7.2 °C72 %1026.1 hPa16.1 kmCalmClear
Hourly data recorded from KTVL, located 0 kilometers away from South Lake Tahoe, California







STORIES FROM OUR PARTNERS